This demonstration page uses our WeatherBlox Daily Observations layout. Learn more.

Hourly Observations for January 4, 2020

Temp ( °F °C ) Dew Point ( °F °C ) Humidity (%) Winds ( mph kmh ) Pressure ( in mb ) Visibility ( mi km ) Precip ( " mm )
12:54 am 00:54 Clear 28 -2.2 17 -8.3 63 63 NW 13 20 30.19 1022 10 16.0934 0 0
1:54 am 01:54 Clear 27 -2.8 17 -8.3 66 66 NW 10 17 30.19 1023 10 16.0934 0 0
2:54 am 02:54 Clear 26 -3.3 16 -8.9 66 66 NW 9 15 30.23 1024 10 16.0934 0 0
3:54 am 03:54 Clear 23 -5 16 -8.9 74 74 NNW 3 6 30.24 1024 10 16.0934 0 0
4:54 am 04:54 Clear 24 -4.4 15 -9.4 68 68 NNW 5 7 30.25 1024 10 16.0934 0 0
5:54 am 05:54 Clear 23 -5 15 -9.4 72 72 Calm 30.23 1024 10 16.0934 0 0
6:54 am 06:54 Clear 23 -5 15 -9.4 72 72 WSW 3 6 30.24 1024 10 16.0934 0 0
7:54 am 07:54 Sunny 20 -6.7 15 -9.4 81 81 S 5 7 30.25 1025 10 16.0934 0 0
8:54 am 08:54 Sunny 22 -5.6 18 -7.8 85 85 S 5 7 30.25 1024 10 16.0934 0 0
9:54 am 09:54 Sunny 28 -2.2 18 -7.8 66 66 WSW 3 6 30.27 1025 10 16.0934 0 0
10:54 am 10:54 Sunny 36 2.2 19 -7.2 50 50 S 6 9 30.25 1024 10 16.0934 0 0
11:54 am 11:54 Sunny 41 5 15 -9.4 35 35 SW 15 24 30.21 1023 10 16.0934 0 0
12:54 pm 12:54 Sunny 43 6.1 19 -7.2 38 38 SW 16 26 30.16 1021 10 16.0934 0 0
1:54 pm 13:54 Sunny 45 7.2 22 -5.6 40 40 SSW 14 22 30.11 1020 10 16.0934 0 0
2:54 pm 14:54 Sunny 45 7.2 23 -5 42 42 S 15 24 30.07 1018 10 16.0934 0 0
3:54 pm 15:54 Sunny 45 7.2 25 -3.9 46 46 SSW 12 19 30.08 1019 10 16.0934 0 0
4:54 pm 16:54 Sunny 43 6.1 26 -3.3 51 51 SSW 12 19 30.07 1018 10 16.0934 0 0
5:54 pm 17:54 Clear 37 2.8 24 -4.4 59 59 S 8 13 30.08 1019 10 16.0934 0 0
6:54 pm 18:54 Clear 39 3.9 26 -3.3 60 60 SSW 10 17 30.06 1018 10 16.0934 0 0
7:54 pm 19:54 Clear 39 3.9 26 -3.3 60 60 S 10 17 30.04 1017 10 16.0934 0 0
8:54 pm 20:54 Clear 40 4.4 27 -2.8 60 60 SSW 14 22 30.01 1016 10 16.0934 0 0
9:54 pm 21:54 Clear 40 4.4 27 -2.8 60 60 S 13 20 29.99 1016 10 16.0934 0 0
10:54 pm 22:54 Clear 40 4.4 28 -2.2 63 63 SSW 16 26 29.98 1015 10 16.0934 0 0
11:54 pm 23:54 Clear 40 4.4 29 -1.7 65 65 SSW 17 28 29.96 1014 10 16.0934 0 0

Powered by AerisWeather